"Time","Temp","Dewpoint","Humidity","Pressure","Direction","Speed","Gust","Precip","PrecipRate"
"00:04:59","48.1","42.8","81.8","30.21","139","0.9","4","0.00","0.00"
"00:09:58","48","42.8","82","30.21","144","1.3","4","0.00","0.00"
"00:14:57","48.1","43","82.3","30.21","150","1.1","3.5","0.00","0.00"
"00:19:59","48.2","43.2","82.8","30.20","141","1.9","6","0.00","0.00"
"00:24:56","48.4","43.5","83","30.20","155","2.5","5.8","0.00","0.00"
"00:29:58","48.6","43.5","82.3","30.20","183","1.9","5","0.00","0.00"
"00:34:56","48.7","43.5","82","30.20","149","2.3","4","0.00","0.00"
"00:39:58","48.7","43.5","82","30.20","167","1.1","4","0.00","0.00"
"00:44:56","48.5","43.3","82","30.20","180","2.2","5","0.00","0.00"
"00:49:58","48.3","43.3","82.7","30.19","174","2.2","5","0.00","0.00"
"00:54:56","48.1","43.2","83","30.19","197","2.1","6","0.00","0.00"
"00:59:58","47.9","43.1","83.2","30.20","168","2","6","0.00","0.00"
"01:04:59","47.8","43.2","84","30.20","182","2.6","6","0.00","0.00"
"01:09:57","47.8","43.2","84","30.20","183","0.5","4","0.00","0.00"
"01:14:56","47.8","43.3","84.5","30.20","183","0.2","1.2","0.00","0.00"
"01:19:58","47.8","43.5","85","30.20","183","0","1.2","0.00","0.00"
"01:24:56","47.8","43.5","85","30.20","183","0","1.2","0.00","0.00"
"01:29:58","47.8","43.5","85","30.20","183","0.1","1.2","0.00","0.00"
"01:34:56","47.7","43.4","85","30.19","183","0","1.2","0.00","0.00"
"01:39:59","47.6","43.3","85","30.19","183","0.1","1.2","0.00","0.00"
"01:44:57","47.6","43.6","86","30.19","183","0.1","1.2","0.00","0.00"
"01:49:59","47.5","43.5","86","30.19","185","0.6","5","0.00","0.00"
"01:54:57","47.6","43.9","87","30.19","207","1.7","4.6","0.00","0.00"
"01:59:59","47.7","44","87","30.19","186","2.3","6","0.00","0.00"
"02:04:56","47.8","44.3","87.6","30.18","190","2.9","5","0.00","0.00"
"02:09:58","48","44.6","88.2","30.18","198","2.7","6","0.00","0.00"
"02:14:56","48.2","45","88.5","30.18","188","3.1","5","0.00","0.00"
"02:19:58","48.5","45.4","89","30.17","188","3.1","6","0.00","0.00"
"02:24:56","48.9","46","89.9","30.17","196","3.3","9","0.00","0.00"
"02:29:58","49.3","46.6","90.1","30.17","184","3.1","8.1","0.00","0.00"
"02:34:59","49.7","47","90.4","30.17","194","2.4","10.4","0.00","0.00"
"02:39:58","50.2","47.7","91","30.17","189","3","5.8","0.00","0.00"
"02:44:59","50.6","48.1","91","30.17","197","3","6","0.00","0.00"
"02:49:57","51","48.8","92","30.17","192","3.9","10.4","0.00","0.00"
"02:54:59","51.6","49.4","92","30.17","194","4.1","9.2","0.00","0.00"
"02:59:57","52.1","49.8","91.7","30.17","194","3.5","7","0.00","0.00"
"03:04:58","52.4","49.9","91.1","30.16","194","3.5","7","0.00","0.00"
"03:09:56","52.7","50.3","91.7","30.16","196","4","7","0.00","0.00"
"03:14:58","53.1","50.7","91.8","30.16","185","3.5","6.9","0.00","0.00"
"03:19:56","53.5","51.2","92","30.16","197","4","9.2","0.00","0.00"
"03:24:58","53.8","51.3","91.5","30.16","177","3.6","8","0.00","0.00"
"03:29:59","54","51.7","92","30.16","189","3.9","11.5","0.00","0.00"
"03:34:57","54.4","52","91.9","30.15","184","4.2","10.4","0.00","0.00"
"03:39:56","54.6","52","91","30.15","192","3.6","8","0.00","0.00"
"03:44:58","54.9","52.5","91.7","30.15","186","4.3","10","0.00","0.00"
"03:49:59","55.1","52.6","91.3","30.14","185","4.4","9.2","0.00","0.00"
"03:54:57","55.4","52.9","91.4","30.14","185","5.5","11.5","0.00","0.00"
"03:59:59","55.7","53.2","91.3","30.14","187","3.8","10","0.00","0.00"
"04:04:52","55.8","53.2","91","30.13","187","4.5","12","0.00","0.00"
"04:09:58","56","53.5","91.1","30.13","191","4.9","13","0.00","0.00"
"04:14:56","56.3","53.7","91","30.13","192","5.5","11.5","0.00","0.00"
"04:19:57","56.6","54","91","30.12","198","6.1","12","0.00","0.00"
"04:24:59","56.8","54.1","90.8","30.12","199","5","13","0.00","0.00"
"04:29:57","57","54.4","91","30.12","202","6.4","12","0.00","0.00"
"04:34:59","57.1","54.4","90.7","30.12","193","6.5","13","0.00","0.00"
"04:39:57","57.2","54.5","90.7","30.12","197","4.6","10.4","0.00","0.00"
"04:44:59","57.3","54.7","91","30.12","198","4.1","12","0.00","0.00"
"04:49:57","57.4","54.8","91","30.12","198","5.2","11.5","0.00","0.00"
"04:54:59","57.5","54.9","90.8","30.12","204","5.1","16","0.00","0.00"
"04:59:56","57.7","55","90.6","30.12","211","4.4","16.1","0.00","0.00"
"05:04:58","57.9","55.2","90.9","30.12","214","4.7","11.5","0.00","0.00"
"05:09:59","58.1","55.2","90.2","30.12","193","4.5","11","0.00","0.00"
"05:14:58","58.2","55.3","90","30.12","188","3.8","11.5","0.00","0.00"
"05:19:56","58.3","55.4","90","30.12","215","3.9","10.4","0.00","0.00"
"05:24:57","58.5","55.7","90.2","30.12","198","4.8","13","0.00","0.00"
"05:29:59","58.7","55.8","90","30.12","205","4.6","10.4","0.00","0.00"
"05:34:57","59","56.1","90","30.12","197","6.3","16.1","0.00","0.00"
"05:39:59","59.4","56.3","89.3","30.12","206","5.5","11.5","0.00","0.00"
"05:44:57","59.6","56.4","89","30.12","214","5.2","10.4","0.00","0.00"
"05:49:59","59.8","56.4","88.5","30.12","216","4.5","10.4","0.00","0.00"
"05:54:57","60","56.4","88","30.12","211","6.7","13","0.00","0.00"
"05:59:58","60.2","56.6","88","30.12","206","5.8","12.7","0.00","0.00"
"06:04:56","60.4","56.8","88","30.11","192","6.3","13","0.00","0.00"
"06:09:59","60.5","56.8","87.8","30.11","196","7.2","14","0.00","0.00"
"06:14:57","60.7","56.8","87.1","30.12","198","6.8","16.1","0.00","0.00"
"06:19:56","60.8","56.9","87","30.12","204","7.5","16.1","0.00","0.00"
"06:24:58","60.9","57","87","30.12","191","7.5","13","0.00","0.00"
"06:29:56","61.1","57.2","87","30.12","190","6.6","17","0.00","0.00"
"06:34:58","61.1","57.1","86.7","30.10","197","8","17.3","0.00","0.00"
"06:39:56","61.2","57.1","86.2","30.10","201","6.9","15","0.00","0.00"
"06:44:58","61.2","57","86","30.10","214","7.4","13","0.00","0.00"
"06:49:56","61.3","57.1","86","30.10","197","6.5","12","0.00","0.00"
"06:54:57","61.4","57.2","86","30.10","196","6.6","18.4","0.00","0.00"
"06:59:56","61.4","57.2","86","30.10","208","6.5","14","0.00","0.00"
"07:04:57","61.5","57.3","86","30.10","208","7.7","16.1","0.00","0.00"
"07:09:59","61.7","57.5","86","30.10","202","7.5","16.1","0.00","0.00"
"07:14:57","61.8","57.6","86","30.11","204","7","15","0.00","0.00"
"07:19:58","61.9","57.4","85.3","30.11","196","7","15","0.00","0.00"
"07:24:56","62","57.4","85","30.11","190","7.5","16.1","0.00","0.00"
"07:29:57","62","57.4","85","30.11","195","5.3","15","0.00","0.00"
"07:34:59","62","57.4","85","30.10","197","6.6","16.1","0.00","0.00"
"07:39:57","62.2","57.6","85","30.10","199","6","12","0.00","0.00"
"07:44:59","62.3","57.7","85","30.12","203","5.4","14","0.00","0.00"
"07:49:57","62.3","57.7","85","30.12","198","6.4","13.8","0.00","0.00"
"07:54:58","62.5","57.6","84.1","30.12","205","7.1","14","0.00","0.00"
"07:59:56","62.5","57.6","84","30.12","196","6.2","12.7","0.00","0.00"
"08:04:57","62.6","57.7","84","30.12","201","6","12","0.00","0.00"
"08:09:59","62.7","57.8","84","30.12","193","5.4","12","0.00","0.00"
"08:14:57","62.8","57.9","84","30.12","197","7.3","16","0.00","0.00"
"08:19:59","62.9","58","84","30.12","186","6.4","13","0.00","0.00"
"08:24:56","63","57.8","83.1","30.12","166","6.4","14","0.00","0.00"
"08:29:58","63.1","57.9","83","30.12","200","4.9","11.5","0.00","0.00"
"08:34:59","63.1","57.9","83","30.12","184","6.8","15","0.00","0.00"
"08:39:58","63.1","57.9","83","30.12","193","6.5","15","0.00","0.00"
"08:44:56","63.2","57.9","83","30.12","198","5.3","11.5","0.00","0.00"
"08:49:58","63.2","57.9","83","30.12","181","4.1","11.5","0.00","0.00"
"08:54:56","63.2","57.9","83","30.12","186","6.2","13","0.00","0.00"
"08:59:57","63.3","58","83","30.12","185","6","18.4","0.00","0.00"
"09:04:58","63.4","58","82.5","30.11","191","6.2","18.4","0.00","0.00"
"09:09:57","63.5","57.9","82","30.11","196","6","12","0.00","0.00"
"09:14:44","63.5","57.9","82","30.11","189","7.2","16.1","0.00","0.00"
"09:19:57","63.7","58.1","82","30.11","202","7.1","16.1","0.00","0.00"
"09:24:58","63.8","58.2","82","30.11","196","7.4","12.7","0.00","0.00"
"09:29:56","64","58.4","82","30.12","198","5.8","12","0.00","0.00"
"09:34:58","64.1","58.3","81.4","30.12","188","5.5","11.5","0.00","0.00"
"09:39:56","64.3","58.3","81","30.12","202","5.3","13","0.00","0.00"
"09:44:58","64.5","58.4","80.8","30.12","203","6.4","14","0.00","0.00"
"09:49:56","64.7","58.6","80.7","30.12","201","5.2","11","0.00","0.00"
"09:54:57","64.9","58.7","80","30.12","208","5.4","12","0.00","0.00"
"09:59:59","65.1","58.7","79.8","30.13","213","5.6","12","0.00","0.00"
"10:04:56","65.3","58.9","79.8","30.13","190","3.5","9.2","0.00","0.00"
"10:09:58","65.5","58.8","79.1","30.13","176","3.8","9.2","0.00","0.00"
"10:14:56","65.7","58.9","78.8","30.13","191","3.8","9.2","0.00","0.00"
"10:19:58","65.9","58.8","78","30.13","183","4.4","10.4","0.00","0.00"
"10:24:59","66","58.9","78","30.13","195","5","10.4","0.00","0.00"
"10:29:57","66.1","59","78","30.13","197","5.4","10.4","0.00","0.00"
"10:34:59","66.3","59","77.2","30.13","194","4.4","8.1","0.00","0.00"
"10:39:57","66.6","59.2","76.9","30.13","192","3.3","10","0.00","0.00"
"10:44:58","66.8","59.1","76.2","30.13","196","5.5","14","0.00","0.00"
"10:49:56","67","59.2","76","30.13","202","5.7","11.5","0.00","0.00"
"10:54:58","67.3","59.2","75.3","30.13","208","6.8","14","0.00","0.00"
"10:59:59","67.7","59.4","74.9","30.13","188","5.4","11.5","0.00","0.00"
"11:04:56","68","59.4","74","30.12","181","6.5","15","0.00","0.00"
"11:09:58","68.1","59.4","73.8","30.12","193","6.3","14","0.00","0.00"
"11:14:56","68","59.3","73.7","30.12","186","5.6","12","0.00","0.00"
"11:19:58","67.9","59.2","73.7","30.11","183","6.8","14","0.00","0.00"
"11:24:59","67.9","59.2","73.7","30.11","204","7","16.1","0.00","0.00"
"11:29:57","68","59.4","74","30.11","208","4.6","10.4","0.00","0.00"
"11:34:59","68.4","59.4","73.2","30.10","214","6.1","14","0.00","0.00"
"11:39:57","68.9","59.9","72.8","30.10","190","5.3","12","0.00","0.00"
"11:44:59","69.7","59.8","70.8","30.10","195","7.3","13","0.00","0.00"
"11:49:56","70.1","59.6","69.2","30.10","202","7.4","17.3","0.00","0.00"
"11:54:58","70.1","59.4","68.8","30.10","186","5.7","12","0.00","0.00"
"11:59:59","70.1","59.4","68.8","30.10","193","6.9","14","0.00","0.00"
"12:04:56","70.3","59.2","68","30.09","177","7.3","13.8","0.00","0.00"
"12:09:58","70.7","59.5","67.7","30.09","192","7.5","16.1","0.00","0.00"
"12:14:56","71.8","59.9","66.2","30.09","206","8.2","16.1","0.00","0.00"
"12:19:58","73.1","60.4","64.6","30.08","203","7.5","15","0.00","0.00"
"12:24:59","74","60.2","62.1","30.08","205","9.9","18.4","0.00","0.00"
"12:29:57","74.1","59.8","61.1","30.08","211","8.3","15","0.00","0.00"
"12:34:58","74","59.7","61","30.07","190","7.3","14","0.00","0.00"
"12:39:56","74.2","59.9","61.2","30.07","209","5.5","11.5","0.00","0.00"
"12:44:58","74.3","59.3","59.6","30.07","201","8.3","19.6","0.00","0.00"
"12:49:59","74.2","59.4","60.1","30.06","196","5.8","13.8","0.00","0.00"
"12:54:56","74.8","59.6","59.2","30.06","206","6.4","13","0.00","0.00"
"12:59:58","75.6","59.8","58","30.06","200","5.8","10.4","0.00","0.00"
"13:04:58","76.2","59.2","55.7","30.05","209","8.3","15","0.00","0.00"
"13:09:56","76","59","55.5","30.05","216","7.9","14","0.00","0.00"
"13:14:58","76.1","59","55.3","30.05","198","7.8","18","0.00","0.00"
"13:19:56","76.4","59.1","55.2","30.04","211","7.4","18.4","0.00","0.00"
"13:24:57","76.8","59.1","54.2","30.04","205","8.2","15","0.00","0.00"
"13:29:59","77.1","59","53.6","30.04","204","6.5","14","0.00","0.00"
"13:34:56","77.4","59","53.2","30.04","214","7.6","17.3","0.00","0.00"
"13:39:58","77.1","58.6","52.8","30.04","204","9.3","16.1","0.00","0.00"
"13:44:56","77","58.9","53.7","30.04","216","8.7","15","0.00","0.00"
"13:49:57","77.2","59","53.5","30.03","226","7.8","15","0.00","0.00"
"13:54:59","77","59.1","54","30.03","218","6.3","11.5","0.00","0.00"
"13:59:56","76.7","59.1","54.6","30.03","197","5.5","14","0.00","0.00"
"14:04:53","76.6","59.2","55","30.02","188","6.3","13","0.00","0.00"
"14:09:59","76.5","59","55","30.02","208","6.5","16.1","0.00","0.00"
"14:14:57","76.2","58.8","55","30.02","197","6.9","15","0.00","0.00"
"14:19:58","75.7","58.9","56","30.02","191","5.6","11.5","0.00","0.00"
"14:24:56","75.4","58.6","56","30.02","205","5.2","12","0.00","0.00"
"14:29:57","75.3","58.1","55.2","30.02","198","6.8","15","0.00","0.00"
"14:34:59","75.2","58.1","55.4","30.02","211","5.5","11.5","0.00","0.00"
"14:39:56","75.2","58.2","55.6","30.02","206","5.2","10.4","0.00","0.00"
"14:44:58","75.1","57.7","54.8","30.03","201","7.6","15","0.00","0.00"
"14:49:59","75.1","57.5","54.3","30.03","199","6.5","15","0.00","0.00"
"14:54:57","75.1","57.5","54.3","30.03","217","6.7","15","0.00","0.00"
"14:59:58","75.1","57.4","54.2","30.03","211","6.4","13","0.00","0.00"
"15:04:56","75.1","57.8","55","30.03","198","4.5","11.5","0.00","0.00"
"15:09:59","75.2","57.8","54.8","30.03","199","4.9","10.4","0.00","0.00"
"15:14:57","75.4","57.8","54.4","30.03","207","5.7","11.5","0.00","0.00"
"15:19:58","75.4","57.8","54.3","30.03","215","6.5","14","0.00","0.00"
"15:24:56","75.3","57.9","54.9","30.03","206","5.1","13","0.00","0.00"
"15:29:57","75.2","57.7","54.7","30.03","209","6.1","13","0.00","0.00"
"15:34:59","75.1","57.8","55","30.02","219","6.5","11.5","0.00","0.00"
"15:39:57","75","57.9","55.3","30.02","213","5","10.4","0.00","0.00"
"15:44:58","75.1","57.9","55.2","30.02","211","4.1","10.4","0.00","0.00"
"15:49:56","75.2","58","55.4","30.02","204","3.8","9.2","0.00","0.00"
"15:54:58","75.3","58.2","55.5","30.02","221","3.6","7","0.00","0.00"
"15:59:59","75.5","58.4","55.5","30.02","220","5.3","10.4","0.00","0.00"
"16:04:57","75.6","58.4","55.2","30.02","224","3.4","8","0.00","0.00"
"16:09:59","75.6","58.1","54.7","30.02","214","5","11.5","0.00","0.00"
"16:14:57","75.4","58.1","55","30.03","220","5","12","0.00","0.00"
"16:19:58","75.3","58","55.2","30.03","219","3.5","6","0.00","0.00"
"16:24:56","75.1","58.1","55.7","30.03","207","3.3","6","0.00","0.00"
"16:29:58","74.9","58.1","56","30.03","200","2.7","6","0.00","0.00"
"16:34:56","74.9","58.2","56.2","30.02","198","4.1","7","0.00","0.00"
"16:39:58","74.8","58.5","57","30.02","199","4.9","10.4","0.00","0.00"
"16:44:59","74.7","58.9","58","30.02","197","4.2","10","0.00","0.00"
"16:49:57","74.6","58.8","58","30.02","195","5.8","11.5","0.00","0.00"
"16:54:58","74.4","58.9","58.4","30.02","208","3.6","14","0.00","0.00"
"16:59:56","74.2","58.9","59","30.02","207","5.6","13.8","0.00","0.00"
"17:04:57","74.1","58.9","59","30.02","203","5","10.4","0.00","0.00"
"17:09:59","73.9","59","59.6","30.02","191","4.5","12","0.00","0.00"
"17:14:56","73.7","58.9","60","30.02","189","5.8","11.5","0.00","0.00"
"17:19:58","73.6","58.9","60","30.02","198","5.7","12","0.00","0.00"
"17:24:59","73.4","58.8","60.1","30.02","201","4.9","11.5","0.00","0.00"
"17:29:57","73.3","59","61","30.03","209","5.2","12","0.00","0.00"
"17:34:58","73.3","59","61","30.03","215","5.4","11.5","0.00","0.00"
"17:39:57","73.2","58.9","61","30.03","200","4.5","10.4","0.00","0.00"
"17:44:59","73.1","58.8","61","30.04","200","3.9","6","0.00","0.00"
"17:49:57","72.9","58.8","61.2","30.04","213","3.9","9.2","0.00","0.00"
"17:54:59","72.8","59","61.9","30.04","200","3.8","9.2","0.00","0.00"
"17:59:57","72.7","58.9","62","30.04","208","4.6","9","0.00","0.00"
"18:04:59","72.7","58.9","62","30.04","202","4.1","9.2","0.00","0.00"
"18:09:56","72.6","58.8","62","30.04","210","3.8","7","0.00","0.00"
"18:14:59","72.5","58.7","62","30.04","217","4.1","11","0.00","0.00"
"18:19:57","72.4","58.6","62","30.04","226","4.6","11.5","0.00","0.00"
"18:24:59","72.4","58.6","62","30.04","210","3.9","7","0.00","0.00"
"18:29:57","72.4","58.6","62","30.05","200","4","7","0.00","0.00"
"18:34:59","72.3","58.5","62","30.05","224","4.9","10.4","0.00","0.00"
"18:39:57","72.4","58.6","62","30.05","261","2.1","5.8","0.00","0.00"
"18:44:59","72.4","58.6","62","30.06","293","1.9","4","0.00","0.00"
"18:49:58","72","58.5","62.3","30.06","268","2","4","0.00","0.00"
"18:54:56","72","58.3","62","30.06","248","1.6","5","0.00","0.00"
"18:59:58","71.9","57.7","61.2","30.06","245","2","6","0.00","0.00"
"19:04:55","71.5","57.3","61","30.06","237","2.2","4","0.00","0.00"
"19:09:57","71.2","57","61","30.06","214","3.1","7","0.00","0.00"
"19:14:56","70.8","56.9","61.6","30.06","209","2.3","6.9","0.00","0.00"
"19:19:58","70.5","56.9","62","30.05","228","2.9","5","0.00","0.00"
"19:24:56","70.3","56.7","62","30.05","209","3.7","10.4","0.00","0.00"
"19:29:58","70.3","56.7","62","30.05","203","2.4","10.4","0.00","0.00"
"19:34:56","70.2","56.6","62","30.05","190","2.5","5","0.00","0.00"
"19:39:59","70","56.4","62","30.05","181","2.1","4","0.00","0.00"
"19:44:57","69.8","56.4","62.6","30.06","182","2","3.5","0.00","0.00"
"19:49:59","69.6","56.4","63","30.06","182","1.8","4","0.00","0.00"
"19:54:57","69.4","56.3","63","30.06","182","2","4","0.00","0.00"
"19:59:59","69.4","56.4","63.3","30.06","182","0.9","3.5","0.00","0.00"
"20:04:57","69.2","56.4","63.7","30.05","182","1.2","4","0.00","0.00"
"20:09:59","68.9","56.9","65.8","30.05","187","2.2","4","0.00","0.00"
"20:14:57","68.3","57.7","68.9","30.06","198","0.9","3.5","0.00","0.00"
"20:19:59","67.8","58","70.7","30.06","198","0.6","2.3","0.00","0.00"
"20:24:57","67.3","58","71.9","30.06","198","0.1","1.2","0.00","0.00"
"20:29:59","66.8","57.5","72","30.06","198","1.5","3.5","0.00","0.00"
"20:34:57","66.5","57.5","72.6","30.06","198","1.4","3","0.00","0.00"
"20:39:56","66.3","57.4","73","30.06","196","1.4","3.5","0.00","0.00"
"20:44:58","66.3","57","72","30.06","191","1.2","3.5","0.00","0.00"
"20:49:56","66.5","57.4","72.6","30.05","196","1.9","4","0.00","0.00"
"20:54:58","66.5","57.6","72.8","30.05","215","1.5","4","0.00","0.00"
"20:59:56","66.5","57.5","72.6","30.06","247","2.8","6","0.00","0.00"
"21:04:53","66.7","57.3","71.7","30.06","244","4.5","11.5","0.00","0.00"
"21:09:56","67.4","57.3","70","30.06","234","5.4","15","0.00","0.00"
"21:14:58","68","57.2","68.4","30.07","209","7.8","16.1","0.00","0.00"
"21:19:56","68.7","57.1","66.4","30.07","217","7.3","18","0.00","0.00"
"21:24:58","69.1","57","65.4","30.07","229","8.2","18.4","0.00","0.00"
"21:29:56","69.3","57","65","30.07","209","5.6","11.5","0.00","0.00"
"21:34:58","69.2","56.9","65","30.07","202","3.6","8.1","0.00","0.00"
"21:39:56","69","56.8","65.2","30.07","186","2.2","7","0.00","0.00"
"21:44:58","68.7","56.8","65.7","30.07","213","4.2","12","0.00","0.00"
"21:49:56","68.4","56.7","66.1","30.06","197","2.7","6","0.00","0.00"
"21:54:58","68","56.6","67","30.06","200","2.5","6","0.00","0.00"
"21:59:56","67.7","56.6","67.6","30.06","193","3.2","7","0.00","0.00"
"22:04:57","67.4","56.5","68","30.06","205","2.7","6","0.00","0.00"
"22:09:57","67.1","56.4","68.3","30.06","205","4","9.2","0.00","0.00"
"22:14:55","66.9","56.2","68.5","30.07","196","4.4","9.2","0.00","0.00"
"22:19:57","66.6","56.4","69.6","30.07","201","3.8","6.9","0.00","0.00"
"22:24:59","66.2","56.5","71","30.07","184","4.3","11.5","0.00","0.00"
"22:29:57","65.8","56.4","71.7","30.07","190","5.8","11.5","0.00","0.00"
"22:34:59","65.4","56.7","73.4","30.05","188","5.1","11.5","0.00","0.00"
"22:39:57","65","56.6","74.4","30.05","132","3.1","9.2","0.00","0.00"
"22:44:59","64.7","56.6","75","30.07","325","3.8","7","0.00","0.00"
"22:49:58","64.5","56.3","74.8","30.07","236","1.9","3.5","0.00","0.00"
"22:54:56","64.6","56","73.9","30.07","198","2.9","6","0.00","0.00"
"22:59:57","64.7","55.9","73.3","30.07","198","3.1","5.8","0.00","0.00"
"23:04:59","64.8","56","73.2","30.05","197","2","4","0.00","0.00"
"23:09:57","64.7","56.2","74","30.05","196","3","6","0.00","0.00"
"23:14:59","64.7","56.2","74","30.05","160","2.6","6.9","0.00","0.00"
"23:19:57","64.6","56.1","74","30.04","198","1.9","5","0.00","0.00"
"23:24:59","64.5","56","74","30.04","311","2.4","4","0.00","0.00"
"23:29:57","64.5","56","74","30.05","256","2.1","5","0.00","0.00"
"23:34:59","64.4","55.9","74","30.05","241","2.7","5","0.00","0.00"
"23:39:58","64.3","56","74.3","30.05","234","1.5","4.6","0.00","0.00"
"23:44:56","64.1","55.8","74.6","30.05","234","1.1","3.5","0.00","0.00"
"23:49:59","63.9","55.8","75","30.03","232","1.2","3","0.00","0.00"
"23:54:57","63.8","55.7","75","30.03","225","1.4","3.5","0.00","0.00"
"23:59:59","63.6","55.5","75","30.03","212","1.3","3.5","0.00","0.00"
